Content
SEND FEEDBACK

Daily
Averages
Monthly
Summary
United Kingdom

DUNGENESS, ENGLAND


Home > Europe > United Kingdom > England
Elevation: 10 feet     Latitude: 50 55N     Longitude: 000 58E

WEATHER
 
SELECT A DAY
Number of Records: 67,277;   Date Range: 7/1/96 - 8/30/14
 
SHARE

PRINT THIS DATA

[ ← Previous Day ]
WEATHER ALMANAC - OCTOBER 12, 2013
[ Next Day → ]
[ °C ]   °F
Weather ElementAverageHighLow
Temperature54.8 °F57.2 °F (11:50 am)51.8 °F (8:50 am)
Dewpoint47.5 °F50 °F (11:50 am)46.4 °F (8:50 am)
Humidity76.8 %88 % (9:20 am)72 % (1:50 pm)
Barometer30.09 in30.12 in (11:50 am)30.06 in (8:50 am)
Wind Speed10.8 mph17.3 mph (9:50 am)
Weather ElementAverage
Visibility6.2 mi
Wind DirectionE (95.2 °)

Weather ElementTotal
Precipitation---
Heating Degree Days10.5 (Base 65)
Growing Degree Days4.5 (Base 50)
Averaged from 21 records on October 12, 2013
WEATHER CONDITIONS BREAKOUT
WIND DIRECTION BREAKOUT
WEATHER BY HOUR - OCTOBER 12, 2013
[ °C ]   °F
Local TimeTemperatureDewpointHumidityBarometerVisibilityWind DirectionWind SpeedGust SpeedPrecipitationEventsConditions
8:50 AM51.8 °F46.4 °F82 %30.06 in6.2 miEast (80°)15.0 mphPartly Cloudy
9:20 AM51.8 °F48.2 °F88 %30.09 in6.2 miENE (70°)13.8 mphPartly Cloudy
9:50 AM53.6 °F48.2 °F82 %30.09 in6.2 miEast (80°)17.3 mphPartly Cloudy
10:20 AM55.4 °F48.2 °F77 %30.09 in6.2 miEast (80°)17.3 mphPartly Cloudy
10:50 AM55.4 °F48.2 °F77 %30.09 in6.2 miENE (70°)15.0 mphPartly Cloudy
11:20 AM55.4 °F48.2 °F77 %30.09 in6.2 miEast (80°)17.3 mphPartly Cloudy
11:50 AM57.2 °F50.0 °F77 %30.12 in6.2 miEast (80°)17.3 mphPartly Cloudy
12:20 PM55.4 °F48.2 °F77 %30.12 in6.2 miENE (70°)13.8 mphPartly Cloudy
12:50 PM55.4 °F48.2 °F77 %30.12 in6.2 miEast (80°)15.0 mphPartly Cloudy
1:20 PM53.6 °F46.4 °F77 %30.09 in6.2 miEast (80°)12.7 mphPartly Cloudy
1:50 PM55.4 °F46.4 °F72 %30.09 in6.2 miEast (80°)11.5 mphPartly Cloudy
2:20 PM57.2 °F48.2 °F72 %30.09 in6.2 miEast (90°)10.4 mphPartly Cloudy
2:50 PM57.2 °F48.2 °F72 %30.09 in6.2 miEast (80°)8.1 mphPartly Cloudy
3:20 PM57.2 °F48.2 °F72 %30.09 in6.2 miEast (80°)8.1 mphPartly Cloudy
3:50 PM57.2 °F48.2 °F72 %30.09 in6.2 miENE (70°)4.6 mphPartly Cloudy
4:20 PM55.4 °F46.4 °F72 %30.09 in6.2 miENE (70°)6.9 mphPartly Cloudy
4:50 PM55.4 °F46.4 °F72 %30.06 in6.2 miENE (60°)4.6 mphPartly Cloudy
5:20 PM53.6 °F46.4 °F77 %30.06 in6.2 miENE (70°)5.8 mphPartly Cloudy
5:50 PM53.6 °F46.4 °F77 %30.06 in6.2 miENE (60°)3.5 mphPartly Cloudy
6:20 PM51.8 °F46.4 °F82 %30.06 in6.2 miWNW (290°)2.3 mphPartly Cloudy
6:50 PM51.8 °F46.4 °F82 %30.06 in6.2 miWest (280°)5.8 mphPartly Cloudy
Hourly data recorded from EGMD, located miles away from Dungeness, England







STORIES FROM OUR PARTNERS